Miscellaneous Local Product
Issued by NWS Hastings, NE

Home | Current Version | Previous Version | Graphics & Text | Print | Product List | Glossary On
Versions: 1 2 3 4 5 6 7 8 9 10 11 12 13 14 15 16 17 18 19 20 21 22 23 24 25 26 27 28 29 30 31 32 33 34 35 36 37 38 39 40 41 42 43 44 45 46 47 48 49 50
000
AXUS43 KGID 281402
MISGRI

GID CWA HOURLY WEATHER ROUNDUP
NATIONAL WEATHER SERVICE HASTINGS NE
900 AM CDT FRI AUG 28 2015

NOTE: "FAIR" INDICATES FEW OR NO CLOUDS BELOW 12,000 FEET WITH NO
SIGNIFICANT WEATHER AND/OR OBSTRUCTIONS TO VISIBILITY.

...SOUTH CENTRAL NEBRASKA...

CITY           SKY/WX    TMP DP  RH WIND       PRES   REMARKS
GRAND ISLAND   MOSUNNY   72  65  78 NW12      29.87F
HASTINGS       CLOUDY    69  65  86 NW5       29.89R
KEARNEY        PTSUNNY   72  64  78 NW8       29.90S
ORD            CLOUDY    67  65  93 N8        29.88R FOG
YORK           PTSUNNY   70  66  88 NW8       29.85S
AURORA         SUNNY     71  68  90 NW9       29.86S
LEXINGTON      CLOUDY    69  66  91 NW7       29.93S
HOLDREGE       CLOUDY    68  65  91 N8        29.92R
HEBRON         CLOUDY    73  66  80 SW9       29.87R

...NEBRASKA PANHANDLE...

CITY           SKY/WX    TMP DP  RH WIND       PRES   REMARKS
CHADRON        SUNNY     64  51  62 VRB6      30.07R HAZE
ALLIANCE       SUNNY     58  53  84 W8        30.07R
SCOTTSBLUFF    SUNNY     61  53  75 NW9       30.11R
SIDNEY         SUNNY     66  52  60 NW14      30.12R

...WESTERN AND NORTH CENTRAL NEBRASKA...

CITY           SKY/WX    TMP DP  RH WIND       PRES   REMARKS
VALENTINE      NOT AVBL
AINSWORTH      CLOUDY    66  66  99 N9        29.96R FOG
ONEILL         CLOUDY    65  65  99 N10       29.92R FOG
BROKEN BOW     PTSUNNY   70  64  81 NW13      29.92R
IMPERIAL       SUNNY     68  56  65 NW12      30.03R
NORTH PLATTE   SUNNY     65  61  87 NW10      29.98R
MCCOOK         SUNNY     67  60  78 NW15      29.98R

...EASTERN NEBRASKA...

CITY           SKY/WX    TMP DP  RH WIND       PRES   REMARKS
NORFOLK        CLOUDY    69  67  93 NW10      29.82S
SO SIOUX CITY  CLOUDY    66  63  90 E8        29.81S
TEKAMAH        CLOUDY    70  68  93 S8        29.80S
COLUMBUS       CLOUDY    70  63  78 NW7       29.83R
ALBION         CLOUDY    68  64  86 NW10      29.87R
OMAHA EPPLEY   CLOUDY    70  66  87 S14       29.83F
OFFUTT AFB     CLOUDY    69  66  90 SE12      29.83F
MILLARD        CLOUDY    71  66  86 E5        29.84R
LINCOLN        CLOUDY    73  67  81 S10       29.84S
NEBRASKA CITY  PTSUNNY   69  67  93 S8        29.87R
BEATRICE       CLOUDY    73  65  76 S14G20    29.86R
FALLS CITY     CLOUDY    71  65  81 S12       29.89R

...NORTHERN KANSAS...

CITY           SKY/WX    TMP DP  RH WIND       PRES   REMARKS
GOODLAND       SUNNY     68  56  65 NW12      30.06R
HILL CITY      SUNNY     73  65  75 NW9       29.95R
NORTON         SUNNY     70  61  73 NW12      29.94R
PHILLIPSBURG   MOSUNNY   73  66  78 W6        29.92R
SMITH CENTER   CLOUDY    70  66  88 NW6       29.92R
HAYS           CLOUDY    73  61  64 NW13      29.94R
RUSSELL        PTSUNNY   73  66  78 NW13      29.91R
CONCORDIA      CLOUDY    73  67  81 S12       29.89R
SALINA         SUNNY     77  66  68 S15G22    29.90R
TOPEKA         CLOUDY    69  67  93 S8        29.93F



USA.gov is the U.S. government's official web portal to all federal, state and local government web resources and services.